Theta_e
332 332 332 332 331 331 331 331 332 333 333 334 336 336 336 337 337 338 338 337 337 337 336 334 334 334 333 333 332 332 331 332 334 334 334 334 334 334 334 334 334 333 333 333 333 333 333 333 332 332 332 333 332 332 332 333 332 332 333 334 333 333 333 332 332 331 330 331 332 332 329 328 330 330 329 330 330 329 330 331 331 331 331 331 331
331 332 332 331 331 331 331 332 332 333 334 334 336 335 336 337 337 338 337 335 334 333 332 332 332 333 333 333 333 332 332 333 333 333 333 332 333 334 334 333 333 332 331 331 331 331 331 331 332 331 331 332 332 331 332 333 332 332 332 333 333 332 332 332 332 332 330 330 331 331 330 329 329 329 328 329 329 329 330 330 330 331 331 330 330
332 332 331 331 331 332 331 332 333 333 334 335 335 336 336 337 337 337 335 334 333 333 334 333 332 331 332 332 332 332 332 332 332 331 331 330 330 330 329 329 329 329 329 329 329 329 329 329 330 330 329 330 330 330 331 332 332 332 332 333 332 332 332 332 332 332 330 330 331 332 332 331 330 328 328 328 329 328 328 328 329 330 330 330 330
332 331 331 332 332 332 332 332 333 334 335 335 335 336 336 337 336 335 335 335 335 336 337 336 334 333 332 331 330 331 330 330 330 329 328 328 328 328 327 327 327 328 329 330 329 329 329 329 329 329 329 329 329 328 329 331 332 331 330 332 331 331 332 331 332 332 330 331 332 332 331 331 331 329 327 328 328 327 328 327 328 329 330 330 330
332 331 331 332 332 332 332 332 334 334 334 334 335 335 335 336 335 334 335 336 337 337 337 335 333 332 330 329 329 329 329 329 329 328 327 328 328 328 328 327 327 327 327 327 328 328 328 328 327 328 328 328 328 328 329 329 330 330 329 330 330 330 330 331 330 331 330 330 331 331 331 332 331 328 328 328 327 327 328 327 327 328 329 329 329
330 330 331 332 332 332 332 333 334 334 333 333 334 334 335 335 334 334 335 336 336 336 335 333 331 330 328 328 327 327 328 328 328 327 327 327 327 326 326 326 326 326 326 326 327 327 327 326 325 326 327 327 327 327 328 328 329 329 329 329 329 329 329 330 329 330 331 330 330 330 332 332 329 328 329 328 326 327 327 328 327 327 327 327 328
330 330 331 332 332 332 333 333 334 334 333 333 333 334 334 333 333 333 335 334 334 334 333 331 330 329 328 327 326 325 326 326 326 326 326 326 325 325 325 325 326 327 326 326 326 326 326 326 325 325 326 326 326 327 327 328 328 328 328 328 328 328 329 329 329 329 330 330 330 329 329 330 329 328 329 328 326 325 324 325 326 326 326 326 327
330 331 332 332 332 333 332 333 333 333 333 333 333 333 333 333 332 332 333 332 332 332 332 331 330 329 328 327 326 326 326 325 325 325 326 326 325 325 325 325 325 325 325 325 326 326 325 324 324 324 325 325 326 327 327 327 327 328 328 328 328 328 328 328 328 328 328 328 329 329 329 330 328 327 327 326 325 324 323 323 323 324 324 325 325
331 331 332 332 332 332 332 333 333 333 333 333 333 333 333 333 332 332 331 331 331 332 331 331 330 328 326 325 326 328 326 325 325 326 326 325 324 325 325 324 324 324 324 324 324 325 324 323 324 325 325 325 324 325 326 327 326 327 327 327 327 327 327 327 326 327 327 327 327 328 329 329 328 327 326 323 322 323 324 323 322 322 322 323 324
332 332 332 332 333 333 333 333 333 333 333 333 333 332 332 332 333 333 333 333 333 333 333 332 330 328 326 326 327 327 326 326 326 326 325 324 324 324 324 324 323 322 322 321 321 322 323 322 323 324 323 322 322 322 324 326 325 325 325 325 325 325 325 323 320 320 322 324 327 328 329 329 329 327 325 324 323 322 323 322 321 321 321 322 323
334 333 333 333 334 334 334 333 332 333 333 333 333 332 331 332 333 333 334 335 334 334 334 332 331 330 328 328 327 325 325 325 324 324 324 324 324 323 323 322 322 321 320 320 321 322 322 320 320 321 320 320 322 322 323 324 323 323 324 323 322 321 320 319 316 316 316 319 323 325 327 328 328 327 325 324 324 322 322 322 320 320 320 321 323
336 335 335 335 335 335 333 332 332 333 333 333 334 333 332 333 333 334 336 336 334 334 333 332 331 330 329 328 327 325 325 324 323 324 324 324 323 322 322 321 320 320 320 321 321 322 321 319 319 319 319 321 322 322 322 322 321 321 321 321 321 319 317 316 315 314 315 315 318 321 325 326 327 327 325 325 324 322 322 321 319 320 320 321 322
337 336 336 335 335 335 334 333 332 332 333 333 333 333 333 334 334 335 336 336 335 333 332 331 330 329 329 328 326 325 324 324 324 324 323 322 322 322 321 320 319 319 320 320 321 321 320 320 319 318 318 319 319 319 320 319 319 319 318 318 318 317 316 315 314 314 314 314 315 318 322 324 325 326 325 324 323 322 320 319 319 319 318 319 320
336 336 336 336 336 334 334 334 333 332 332 332 333 333 334 334 335 334 335 336 334 331 331 330 329 328 328 327 325 325 324 325 325 323 322 322 322 321 320 319 319 318 319 319 320 320 320 319 319 318 317 317 318 318 318 318 317 317 316 316 316 316 314 314 314 313 313 314 314 316 318 320 322 325 326 324 322 321 320 318 318 318 318 317 318
333 333 334 335 334 334 334 333 333 333 332 331 332 333 333 334 334 334 334 335 334 331 330 330 328 327 328 327 325 324 324 324 324 323 322 322 320 319 319 319 318 318 319 319 319 319 319 318 319 317 315 315 317 316 316 316 315 315 315 315 314 314 314 313 313 313 313 313 314 315 316 317 318 321 323 324 323 321 318 317 317 317 316 314 313
331 331 332 332 331 333 333 332 332 332 332 331 332 333 333 334 334 333 333 334 334 331 330 329 327 326 328 326 324 324 323 323 323 322 323 322 320 318 319 319 319 319 319 318 318 317 317 317 317 316 315 314 315 315 315 316 316 316 316 315 315 315 314 314 313 313 312 312 312 314 316 316 315 315 317 320 321 321 317 316 316 315 313 312 312
330 330 331 330 330 330 332 332 331 332 332 332 332 332 332 333 334 333 333 334 333 330 329 328 325 325 327 326 324 323 323 323 323 323 323 321 319 318 318 319 319 318 317 317 317 317 317 317 317 316 315 315 315 315 315 315 315 315 315 315 315 315 314 314 314 313 313 312 312 313 314 315 314 314 314 315 317 318 317 316 316 314 311 312 315
328 328 328 329 329 329 329 330 331 332 332 332 332 332 332 333 333 333 333 333 332 329 327 326 325 326 326 326 324 323 323 323 323 323 322 320 319 318 319 319 318 317 316 316 316 317 318 318 317 317 316 316 316 315 314 314 314 314 315 315 314 314 314 314 314 314 313 313 312 312 313 314 314 313 313 314 315 316 316 316 316 313 311 312 314
329 329 328 328 328 327 327 327 329 330 329 328 329 331 332 333 333 333 332 331 330 328 326 327 328 327 327 325 324 323 323 323 323 321 321 320 319 318 319 319 318 316 315 316 317 318 318 317 317 317 317 317 317 316 315 315 316 316 315 315 314 313 313 313 314 314 314 314 313 313 312 313 313 313 313 314 314 314 315 315 315 313 311 312 311
329 329 329 328 327 327 326 326 326 327 326 325 326 328 330 333 331 331 332 331 330 329 328 329 328 327 327 326 325 325 323 323 322 320 320 320 319 319 319 319 318 316 317 317 318 318 317 318 318 318 318 317 317 317 317 317 317 316 315 315 315 315 314 315 315 314 313 314 314 313 313 312 312 312 313 313 313 314 314 315 315 313 312 312 311
327 327 328 327 326 327 327 326 325 325 325 325 324 325 329 332 331 331 333 332 332 331 330 330 328 327 327 326 326 326 324 322 321 320 321 320 320 319 319 319 318 318 318 318 318 318 318 319 319 318 318 318 318 318 318 319 318 317 317 317 316 316 316 316 316 315 314 314 313 313 313 313 313 312 312 313 313 313 314 314 314 313 312 313 312
328 328 328 326 326 326 327 326 326 326 325 324 323 325 329 331 331 331 332 332 332 331 331 330 329 328 328 327 326 326 324 323 321 320 321 321 320 320 319 318 318 319 319 319 319 319 319 319 319 319 319 320 320 320 320 321 320 319 320 320 318 317 317 317 317 316 316 316 315 314 314 314 314 314 313 313 313 314 315 316 315 314 313 312 312
330 329 328 326 326 326 325 325 325 326 325 323 324 326 328 329 330 331 331 331 330 330 329 329 329 329 328 328 327 326 325 324 322 321 321 322 321 320 319 319 319 320 320 319 319 319 319 319 319 319 320 321 321 321 322 322 321 321 322 321 320 320 320 320 319 317 317 318 317 317 316 316 316 315 314 313 314 315 316 316 316 316 315 315 314
329 328 327 327 326 325 325 324 324 325 325 324 324 325 326 327 328 328 329 328 327 326 326 326 326 327 328 327 326 326 326 325 323 322 322 322 322 321 320 319 319 320 320 319 319 319 318 318 319 319 320 321 321 321 322 322 322 322 322 322 322 322 322 322 320 318 318 319 319 318 318 318 317 316 316 315 314 316 316 316 317 316 316 317 317
326 326 326 326 325 325 325 325 325 325 325 325 325 326 326 326 326 326 326 325 324 324 325 324 324 325 326 327 327 325 325 325 324 324 323 323 322 322 321 319 319 319 319 319 319 318 319 318 318 319 319 320 321 321 322 323 322 322 322 321 322 322 322 322 321 320 320 320 320 319 319 319 318 318 318 316 315 316 316 316 317 317 317 317 317
323 325 325 325 325 324 324 325 325 325 326 326 327 327 326 325 326 326 326 325 324 323 324 324 323 323 323 324 325 324 324 326 326 325 324 323 322 322 322 320 320 319 319 319 318 318 318 318 318 319 320 320 321 321 322 322 322 322 322 321 321 321 321 322 321 321 320 320 320 319 319 319 319 319 319 318 316 317 316 316 317 317 317 317 317
322 322 322 323 325 324 323 324 326 326 326 326 326 326 326 325 325 326 326 326 324 324 324 323 322 322 322 323 324 323 323 325 326 325 324 322 321 322 321 320 320 319 318 319 319 318 318 319 319 319 320 321 321 322 322 322 321 322 322 321 321 321 320 321 321 321 320 320 320 319 319 319 319 319 320 319 318 317 317 316 316 316 317 317 317
322 323 323 325 327 325 323 324 326 326 326 325 324 325 325 324 324 325 326 326 325 324 324 324 323 324 325 325 324 324 323 323 324 324 322 321 321 321 321 320 320 319 318 319 319 318 319 320 319 319 319 320 320 321 321 321 321 320 320 321 320 320 320 320 320 320 319 319 320 320 319 319 320 320 320 320 318 318 318 317 316 316 316 316 316
321 322 321 323 326 325 323 324 325 325 325 325 324 324 324 324 324 324 324 325 324 324 324 325 325 324 325 325 324 324 323 322 324 324 322 322 322 321 320 320 320 319 318 318 319 319 319 320 320 319 319 319 320 321 321 320 319 318 319 321 321 319 319 319 320 320 319 319 320 320 319 319 320 321 320 320 319 319 319 318 317 317 316 316 315
315 315 314 315 317 317 316 318 321 323 324 324 325 325 323 323 324 324 324 324 324 323 324 324 323 323 324 324 323 323 323 322 322 323 323 323 322 320 320 320 320 319 319 318 319 319 319 320 321 320 319 319 320 320 319 319 318 317 319 321 320 318 318 319 320 320 320 320 320 320 320 321 321 321 321 320 320 319 319 318 318 317 317 316 316
311 312 311 311 311 311 311 312 314 317 318 319 322 324 323 323 323 323 323 323 323 323 323 323 321 321 322 322 322 322 323 322 322 322 323 322 320 320 320 319 319 320 320 319 319 320 320 321 321 320 320 319 319 319 319 318 319 319 320 320 318 318 319 319 319 319 319 319 319 320 321 321 321 321 320 320 320 319 319 318 318 317 317 316 316
308 309 310 310 309 309 310 310 310 311 311 312 315 320 323 323 322 322 323 323 322 322 322 322 321 321 321 321 321 321 322 322 321 321 322 321 320 319 318 319 320 321 321 321 320 320 321 321 321 320 320 319 319 319 319 319 319 319 320 319 318 318 319 318 318 319 319 318 319 321 321 321 321 320 318 318 318 317 317 317 317 316 316 315 315
306 307 307 308 308 308 308 309 309 309 309 309 311 314 319 322 322 321 321 322 322 322 322 322 321 321 320 320 320 320 320 321 321 321 321 321 320 319 318 321 323 323 323 322 322 321 321 321 321 321 320 320 319 319 319 318 317 318 319 319 318 318 318 318 318 318 319 319 320 321 321 320 320 319 317 317 316 314 314 315 315 315 314 314 313
306 306 306 307 307 308 308 308 308 308 309 309 310 310 314 319 321 321 321 321 321 321 321 321 322 321 321 320 320 320 320 320 321 321 321 320 320 320 321 323 324 323 322 322 321 320 320 320 320 319 320 320 319 318 318 317 317 318 318 319 318 318 318 318 318 317 318 319 320 321 320 318 317 317 317 316 313 312 312 313 313 313 313 312 312
307 306 306 306 307 307 307 307 308 308 308 309 309 310 311 313 315 316 318 320 320 320 320 321 321 321 320 320 320 321 320 320 321 321 320 319 320 321 322 323 323 322 322 321 320 319 319 318 318 318 318 318 317 317 317 317 317 318 318 317 317 317 317 316 317 316 316 317 320 320 318 316 316 316 315 314 312 311 311 311 311 311 310 310 310
306 306 306 306 307 307 307 307 307 308 308 308 309 309 309 309 310 310 312 313 314 315 316 318 319 320 320 320 320 321 320 320 320 320 319 319 320 321 322 321 322 322 321 320 319 320 319 318 317 317 317 317 317 318 318 317 317 317 317 317 317 316 315 315 316 316 315 315 317 318 317 316 316 315 314 313 312 312 311 310 310 309 309 308 308
305 305 306 307 306 306 306 306 305 306 307 307 308 309 309 309 309 308 309 309 309 309 310 311 314 318 320 320 320 320 320 320 320 320 320 320 320 320 320 320 321 322 321 320 320 320 319 318 318 318 317 316 318 319 317 316 316 316 315 316 317 316 315 315 315 315 315 315 316 316 316 315 314 314 313 312 312 311 311 310 310 310 309 308 308
306 306 307 307 306 305 304 304 304 304 304 305 307 308 308 308 308 307 308 308 307 307 308 308 309 312 316 317 318 320 320 319 319 319 320 320 320 320 320 320 321 321 320 320 319 318 317 317 317 317 315 314 315 317 317 315 316 315 315 316 316 315 315 315 314 312 312 313 315 314 312 310 310 311 312 312 311 311 311 311 310 310 309 308 307
305 307 307 305 304 304 303 303 303 303 303 304 305 305 306 307 308 307 306 306 306 306 306 307 307 308 310 311 313 316 318 318 319 319 320 320 320 320 320 321 320 319 319 318 317 316 315 315 315 313 313 313 313 315 317 317 317 316 314 314 315 315 314 314 311 309 310 311 312 311 309 307 305 306 308 311 311 310 310 311 310 309 308 307 306
302 303 303 302 302 302 302 302 302 302 303 303 304 304 304 304 305 305 304 305 305 305 305 306 307 307 308 308 309 311 313 315 317 318 318 318 318 318 319 319 319 317 316 316 317 316 315 315 313 310 309 309 308 310 314 316 316 315 313 313 315 314 313 313 311 309 309 309 309 308 306 305 304 304 306 310 310 309 309 309 308 307 306 305 304
300 301 301 301 301 301 301 301 301 302 302 302 303 303 302 303 303 303 303 303 303 303 304 305 306 307 307 307 307 308 309 311 313 314 314 315 316 316 316 317 317 316 315 314 316 316 315 314 313 310 307 305 304 304 306 308 311 312 310 312 314 313 312 312 311 309 309 308 307 306 305 305 304 304 304 307 309 308 308 307 306 306 305 304 304
300 300 300 300 300 300 300 301 301 301 301 301 302 302 302 302 302 302 302 303 303 303 303 304 305 305 305 306 306 306 306 308 309 311 311 312 313 314 314 314 314 314 314 313 314 315 315 314 313 312 310 308 306 304 303 303 305 306 306 309 312 313 312 312 311 310 309 307 306 306 305 304 304 303 303 303 304 304 305 305 305 304 303 303 303
300 300 300 300 300 300 300 300 300 300 300 300 301 301 302 302 302 302 301 301 302 302 302 303 303 304 304 305 305 305 304 304 305 307 309 310 311 311 311 312 311 311 311 311 312 314 314 314 313 313 312 309 307 306 305 303 303 304 305 307 310 311 310 310 311 310 309 307 306 306 305 304 303 303 303 303 303 303 303 303 303 303 303 302 301
299 299 299 299 299 299 299 299 299 299 299 299 299 300 300 301 301 301 301 301 301 301 301 302 302 303 303 303 303 303 303 303 303 304 305 307 309 310 311 311 311 310 310 310 310 312 313 312 312 311 310 309 308 308 306 304 302 303 305 306 309 310 308 308 310 310 309 308 306 305 305 304 303 302 302 302 302 302 302 302 302 301 300 298 297
299 299 298 298 298 298 298 298 298 298 298 298 298 299 299 299 300 300 300 300 300 300 300 301 301 302 302 302 301 301 301 302 303 303 303 304 306 308 310 311 311 311 310 310 310 310 311 311 310 310 311 311 311 310 308 305 302 303 305 306 307 308 307 307 309 309 308 307 306 305 304 303 301 301 301 301 301 301 300 300 299 297 296 296 297
299 299 299 298 298 298 298 298 297 298 298 297 297 298 298 298 299 299 299 299 299 300 300 300 300 300 301 301 302 302 301 302 302 302 302 302 302 303 306 308 310 310 310 310 310 309 310 310 310 309 311 313 313 311 309 305 302 302 304 306 307 307 305 305 307 307 307 306 305 304 303 302 301 301 301 300 300 299 299 298 296 295 296 297 298
299 299 298 298 298 298 298 297 297 297 298 297 297 297 297 298 298 298 299 299 299 299 299 299 299 300 300 300 301 301 301 301 300 299 299 299 299 300 302 304 307 309 310 310 310 310 309 309 307 306 308 311 311 310 308 306 304 302 302 304 306 306 304 304 305 306 305 305 304 303 302 301 301 301 300 300 300 299 297 296 296 296 297 298 297
298 297 297 297 297 297 297 297 297 297 297 297 297 297 297 297 297 297 298 298 298 298 298 298 298 299 299 299 300 301 301 301 300 300 299 299 299 299 300 301 303 306 309 310 310 309 309 309 307 305 306 308 309 309 308 307 305 304 303 304 305 305 304 302 304 305 304 303 303 301 301 300 300 300 300 300 299 298 296 296 297 297 297 297 297
296 296 296 296 297 297 297 297 297 296 296 296 296 296 296 296 296 296 296 296 296 297 297 297 297 297 298 298 298 299 299 300 300 300 301 301 300 300 300 300 300 303 306 308 309 309 309 309 308 307 307 307 307 307 308 307 304 302 302 302 303 304 303 302 302 303 303 302 301 300 300 300 299 299 300 299 298 297 296 297 297 297 296 296 296
296 296 296 296 296 296 296 296 296 296 296 296 296 295 296 296 296 296 296 296 296 296 296 296 296 296 296 297 297 297 297 298 299 300 300 301 301 301 301 301 302 303 305 306 308 309 309 308 308 308 307 307 306 306 307 308 305 301 300 301 301 301 303 303 302 302 302 302 301 300 300 299 299 299 300 299 298 298 297 297 297 297 296 295 296
296 296 296 296 295 295 295 295 295 295 295 295 295 295 295 295 295 295 295 295 295 295 295 295 295 295 296 296 296 296 296 297 298 299 299 300 300 300 301 302 302 302 304 307 308 309 308 308 308 307 307 307 306 306 307 308 306 303 301 301 300 298 300 303 302 302 302 301 301 300 300 299 299 300 300 299 298 298 298 297 297 297 296 296 296
Wind_Speed
16 20 22 25 25 22 19 20 23 23 23 25 27 29 29 29 29 28 28 28 28 29 28 28 28 25 24 24 22 18 15 14 13 13 13 12 12 12 12 11 10 10 10 10 8 7 8 8 8 7 5 5 5 4 3 3 2 3 4 3 4 4 3 3 4 5 7 9 11 14 16 16 14 10 8 10 11 11 12 13 13 12 13 14 13
15 15 13 18 21 20 21 24 27 27 27 28 29 31 31 29 29 28 28 27 27 28 28 28 30 30 29 28 27 24 20 20 19 17 16 15 14 14 14 13 12 12 12 11 9 8 9 9 8 7 5 4 4 4 4 3 2 3 3 4 4 4 4 3 4 4 4 6 9 11 14 16 16 13 7 7 10 10 12 12 12 13 14 13 12
14 11 10 16 18 19 23 26 27 28 30 30 29 31 32 30 29 29 28 26 26 26 26 27 28 29 29 29 30 29 26 23 21 20 18 16 15 15 15 15 14 15 14 12 10 10 10 10 9 7 6 5 5 4 4 4 3 3 4 5 5 5 4 3 4 4 3 6 8 5 4 7 10 11 8 6 7 10 12 11 10 12 12 11 10
14 11 11 17 18 18 20 22 24 26 26 26 28 31 32 30 30 30 27 25 24 24 24 24 24 23 25 26 28 29 27 24 22 21 18 17 16 14 13 13 14 15 14 13 11 10 10 10 9 7 5 4 4 4 3 3 3 3 4 6 7 7 6 4 4 4 5 6 5 3 2 3 3 6 8 7 6 9 11 10 9 10 11 10 10
15 12 10 13 16 16 18 19 21 22 21 23 28 30 30 30 31 30 27 25 25 25 24 22 21 23 26 27 27 27 26 25 25 23 20 19 17 14 12 12 14 15 13 13 13 12 12 11 10 9 7 6 7 7 7 5 4 4 4 5 7 7 8 7 5 5 6 4 4 4 3 2 2 6 8 6 6 8 10 11 12 12 11 10 10
12 12 12 12 15 17 18 20 21 19 19 23 27 28 29 31 31 29 28 26 26 27 26 23 24 29 32 30 28 27 25 25 26 24 22 20 18 17 15 14 16 15 13 12 13 13 12 10 10 11 10 11 10 10 10 10 9 7 5 5 6 6 8 8 7 6 5 4 6 5 3 7 10 8 5 3 6 9 9 12 14 14 12 10 11
10 11 12 13 15 18 18 21 22 20 21 26 27 26 28 29 29 29 27 26 28 30 28 25 27 29 30 29 28 27 25 24 25 24 22 21 20 19 17 16 17 17 15 14 14 13 11 9 9 10 10 11 12 11 11 12 11 9 7 6 7 6 7 9 9 7 7 6 6 6 9 15 17 12 7 4 4 6 7 9 12 12 12 10 11
10 10 11 12 15 18 20 21 21 22 25 27 27 26 27 27 27 27 26 26 29 30 28 26 27 27 27 28 28 26 24 23 25 24 22 21 21 19 17 17 16 14 14 15 13 11 10 8 8 11 12 12 13 13 12 12 12 12 11 10 10 8 9 11 10 8 9 9 8 9 12 14 16 17 16 13 7 3 4 6 9 11 11 11 13
11 11 12 12 15 18 21 21 20 23 26 27 27 27 27 27 26 26 26 27 29 30 28 25 25 26 28 28 26 24 24 26 27 24 21 21 20 17 16 16 15 14 14 14 12 12 10 11 11 15 16 14 13 13 13 13 13 13 14 13 13 11 11 11 10 8 9 9 10 12 14 14 16 18 19 18 12 7 3 2 7 10 10 11 14
10 11 11 13 16 18 19 20 20 21 24 26 25 25 26 27 27 28 28 28 29 28 26 24 24 26 27 27 26 27 28 28 27 23 21 20 20 19 18 17 16 16 15 13 13 13 12 14 16 18 17 15 14 14 14 14 13 13 13 13 12 12 11 11 12 11 10 9 10 13 15 16 16 15 16 18 13 9 7 5 8 8 8 11 14
8 9 10 14 16 16 17 19 19 19 21 22 21 23 25 25 26 28 27 26 28 26 24 25 25 25 26 28 29 31 30 28 26 24 23 23 22 22 20 18 17 18 18 17 16 15 14 16 19 18 17 16 16 15 15 14 13 13 13 12 12 13 13 13 14 15 15 14 11 11 14 15 15 15 17 18 13 10 9 6 8 10 10 12 15
9 10 10 12 14 14 17 19 19 20 21 20 20 22 23 23 25 25 23 25 26 25 25 27 25 23 27 30 30 29 29 28 27 25 25 24 23 22 20 18 18 18 19 19 17 16 16 17 18 18 17 17 16 14 13 13 13 12 12 12 12 14 15 15 16 17 18 19 17 13 12 13 17 21 21 20 19 19 15 9 10 12 9 10 15
8 10 10 10 10 11 15 19 20 21 21 21 21 22 22 22 23 23 22 24 25 24 26 27 23 23 28 29 28 28 28 28 27 26 24 23 24 23 21 19 19 18 19 18 17 17 17 18 18 18 18 17 16 15 14 14 14 13 13 13 13 14 15 16 17 17 17 18 20 19 16 13 16 20 21 22 23 23 19 13 13 13 10 11 14
7 8 10 9 9 12 15 18 19 19 20 22 21 22 22 21 21 21 21 23 23 23 26 26 22 23 26 26 27 28 28 27 26 25 23 24 25 24 22 21 20 20 19 19 18 17 18 19 19 18 18 16 17 17 15 14 14 15 15 15 15 16 17 17 17 16 16 16 17 19 19 17 14 16 20 24 25 23 21 18 14 12 12 14 14
6 6 7 5 7 14 18 18 18 18 19 21 21 21 21 20 20 20 20 21 22 22 24 24 21 20 21 23 26 27 26 26 25 23 24 25 25 23 23 22 21 20 19 19 18 18 18 19 19 19 19 18 18 17 16 16 17 17 17 17 18 18 18 18 17 16 14 14 15 17 18 19 17 14 16 19 21 22 22 23 19 12 8 8 9
7 7 6 4 4 12 17 20 19 18 19 21 21 21 20 20 20 19 20 20 20 21 22 22 20 19 18 20 24 24 23 24 24 23 23 23 22 22 23 22 21 20 19 18 18 19 19 20 20 19 18 18 18 17 17 17 17 17 17 18 18 17 18 18 17 16 15 14 14 15 16 17 17 17 15 13 14 18 23 25 22 16 11 6 4
7 7 7 6 6 9 12 19 19 17 18 21 22 22 20 20 19 18 19 18 18 19 21 21 20 18 17 19 21 21 21 22 22 22 22 21 21 23 23 22 21 19 18 19 19 20 21 21 21 20 19 18 18 17 17 17 17 17 17 17 16 16 17 17 17 16 16 16 15 14 14 14 15 18 18 18 17 16 19 22 20 18 18 12 3
7 6 6 4 6 7 8 13 17 15 15 18 20 21 20 19 19 18 18 17 16 17 20 21 19 17 17 19 19 19 20 20 20 21 21 21 22 23 23 22 20 19 19 20 20 20 19 19 20 20 20 19 18 17 17 17 17 18 17 16 16 16 17 17 16 16 15 15 15 15 14 14 14 16 18 19 20 17 14 13 14 20 24 20 11
6 6 5 3 4 6 7 9 12 11 9 12 16 19 20 19 18 16 17 17 16 18 20 19 18 19 19 20 20 19 19 18 18 20 20 20 22 23 23 22 20 19 20 21 20 19 19 19 19 18 18 18 17 17 16 16 17 16 15 14 14 15 16 16 15 14 13 12 13 14 14 14 13 15 19 19 18 16 15 14 12 20 23 24 21
5 5 5 4 3 4 7 6 5 6 5 7 12 16 18 18 19 18 17 18 17 19 19 17 19 21 21 21 19 18 19 19 18 19 20 20 22 22 22 22 21 20 20 20 19 19 19 19 17 17 18 18 16 15 15 15 15 14 13 14 13 12 13 13 11 11 11 11 13 14 13 12 12 14 16 16 16 16 15 15 13 19 21 21 22
5 4 4 4 3 3 7 8 5 5 4 3 7 14 17 17 20 20 19 20 19 19 18 16 18 20 20 20 17 16 18 19 18 18 18 19 20 21 21 21 20 20 19 19 19 18 18 17 16 17 18 17 15 14 13 13 14 13 10 11 12 11 11 10 10 11 10 10 11 12 11 10 10 11 11 11 11 11 14 17 16 17 19 16 15
6 5 5 5 5 6 10 10 8 9 7 3 4 11 16 17 18 18 18 18 19 18 16 15 16 16 16 17 15 15 18 18 18 18 16 17 19 19 19 20 20 20 19 18 18 16 15 15 15 16 16 15 14 14 12 12 13 12 9 9 11 12 11 9 9 10 10 9 9 9 8 8 9 10 10 10 9 9 14 20 20 17 17 14 13
7 7 6 6 7 11 13 10 8 10 13 9 6 8 12 15 14 16 17 18 17 15 13 13 13 13 13 13 12 13 15 16 17 16 14 14 17 18 17 18 18 18 18 17 16 15 15 14 13 14 14 13 13 13 11 10 11 10 8 10 12 12 10 7 8 9 9 9 9 8 8 8 9 10 10 10 10 11 14 17 18 17 15 12 11
5 5 5 6 10 12 10 11 10 11 13 14 12 10 9 12 10 11 13 12 10 12 13 12 10 8 8 8 8 9 11 14 15 13 10 11 15 17 16 16 17 17 17 16 15 15 14 13 13 12 12 12 12 11 10 10 11 10 9 9 10 10 8 7 8 10 11 10 10 10 8 8 8 8 9 9 9 11 12 13 13 13 12 12 10
10 9 8 6 8 9 10 11 11 12 13 15 14 10 9 10 7 6 8 7 7 10 12 11 8 7 7 6 7 9 9 11 11 10 8 8 13 15 14 15 16 16 17 15 15 15 14 13 13 12 11 11 11 10 9 11 11 10 9 8 7 8 7 4 5 8 9 9 9 10 9 9 8 6 7 7 8 10 13 13 11 10 10 12 12
13 10 8 7 6 6 8 10 12 12 13 14 14 10 8 7 7 8 8 8 8 9 10 10 9 9 10 8 9 12 11 8 7 7 6 7 10 12 12 13 14 16 17 15 15 15 13 12 13 12 12 13 13 13 11 12 10 7 7 6 4 5 5 4 4 4 5 6 6 8 10 10 9 7 5 5 6 9 11 12 11 10 10 10 11
9 7 7 9 8 8 8 10 13 14 14 13 12 12 11 8 6 6 6 8 9 9 10 12 12 11 11 11 11 12 11 8 6 6 6 6 8 9 11 13 13 16 17 14 14 15 13 12 13 13 14 15 15 14 12 11 10 6 4 3 3 4 5 4 5 5 5 5 6 7 8 8 9 8 5 4 5 5 8 10 9 8 8 9 11
9 5 5 7 7 7 8 10 14 15 14 13 11 11 11 9 6 6 6 6 7 10 11 11 12 12 10 11 12 13 12 10 8 8 9 9 9 11 13 13 14 15 16 14 14 15 13 12 12 13 13 14 14 13 10 9 9 6 3 2 4 4 4 5 6 7 6 6 7 7 7 8 9 8 6 6 5 4 3 6 8 6 5 7 9
9 8 7 7 6 5 7 9 13 16 16 15 13 12 12 11 7 5 6 6 6 9 11 12 14 13 11 11 10 11 13 13 10 9 11 11 12 12 11 12 13 15 17 16 15 16 14 13 12 12 12 13 13 12 10 9 8 7 4 3 3 3 3 5 6 6 6 7 7 6 6 7 7 5 5 6 6 5 4 4 6 6 5 6 6
11 11 11 10 9 11 15 17 16 16 16 13 13 14 13 11 10 8 7 6 6 8 11 13 16 13 10 10 9 10 13 15 14 13 12 11 12 14 12 11 12 12 16 18 17 16 16 14 12 11 11 12 12 11 10 9 8 7 5 3 2 1 0 3 4 5 6 7 7 7 7 7 6 5 5 6 6 6 5 3 2 3 4 5 5
11 11 11 11 12 14 18 20 20 20 19 16 12 12 12 11 12 11 9 7 8 8 9 12 14 13 9 8 8 10 12 15 17 18 17 15 17 20 20 18 14 12 14 18 18 17 17 15 13 11 11 11 11 11 11 10 8 7 5 4 3 3 5 5 5 6 8 8 8 8 8 8 6 5 5 5 4 4 3 3 3 4 4 4 4
10 10 10 11 11 13 16 19 21 22 22 23 19 11 9 11 12 11 10 10 11 12 12 14 14 12 10 10 11 12 11 12 16 18 18 18 19 24 27 22 16 13 14 17 18 17 17 15 13 11 10 11 12 13 12 10 8 7 6 7 8 9 10 9 8 8 8 9 10 10 10 8 6 5 5 4 4 2 1 3 3 4 5 4 4
9 9 10 10 10 13 16 18 20 21 22 24 26 20 10 8 9 10 11 11 11 11 12 14 12 11 12 11 13 15 14 12 13 16 18 18 18 23 24 18 14 15 16 15 16 15 15 13 13 12 11 11 13 14 11 8 8 9 10 11 11 10 10 10 9 8 8 10 12 12 11 10 8 6 5 5 4 4 3 3 4 4 5 5 5
8 8 8 9 12 15 19 21 22 23 25 27 29 28 20 11 8 9 10 11 11 11 11 13 13 12 14 14 15 17 16 14 13 15 19 19 17 20 19 15 14 16 15 14 13 12 12 12 11 11 11 11 12 11 10 9 11 13 13 11 11 11 11 11 11 11 11 11 13 14 13 11 9 7 7 6 5 5 6 6 6 5 4 4 3
6 6 7 10 15 19 21 23 23 23 27 31 30 29 28 24 20 17 12 9 9 10 9 10 11 13 15 16 17 18 17 16 16 16 18 19 18 19 18 15 15 15 15 15 12 9 11 12 12 12 12 12 12 11 11 13 15 15 13 13 14 14 14 13 12 11 11 12 14 14 13 12 10 8 8 7 6 6 7 8 8 8 8 6 5
6 7 8 11 18 21 21 24 25 25 27 29 28 28 29 28 28 27 24 22 21 19 15 10 6 7 11 12 14 15 15 17 18 16 17 18 19 20 18 16 14 13 13 13 13 13 13 12 13 13 13 14 14 14 15 17 17 16 14 15 16 15 14 13 11 10 10 12 13 12 12 12 10 8 8 6 5 5 5 6 7 8 9 8 7
11 13 13 15 21 23 22 24 27 28 27 25 25 26 28 28 28 28 28 28 28 26 24 22 16 6 5 6 8 9 9 12 15 14 13 14 15 16 15 14 13 13 11 13 16 17 16 15 15 16 15 15 16 16 17 17 17 16 15 14 15 15 14 13 13 11 10 11 12 11 10 10 9 9 9 7 7 7 6 5 5 6 6 6 6
10 13 14 17 21 23 23 24 26 27 26 25 24 25 26 26 27 28 28 27 28 27 26 26 25 17 7 5 4 4 4 6 9 10 9 8 9 11 13 13 14 14 15 16 18 17 16 16 16 16 15 16 16 16 17 17 17 17 14 12 14 18 18 15 14 13 11 11 11 10 8 7 8 8 8 8 8 8 7 8 6 6 6 6 6
12 13 15 19 21 23 24 26 26 26 26 25 24 25 26 25 25 27 28 27 27 28 27 26 25 23 18 14 9 6 6 6 7 9 10 9 10 11 12 13 13 14 16 17 17 16 16 16 15 13 14 15 15 16 17 17 18 17 14 13 16 19 18 16 15 14 14 12 11 9 7 6 6 7 7 8 9 7 7 9 8 7 8 8 7
19 18 19 22 24 24 25 25 25 23 23 23 23 25 26 25 25 27 28 26 25 26 26 24 21 21 21 20 18 13 9 6 7 10 10 11 12 12 12 14 15 15 16 17 17 17 16 14 12 11 12 13 13 15 17 17 17 18 15 13 17 19 18 16 16 15 15 14 12 11 9 7 7 8 7 8 9 7 6 8 8 7 8 7 6
22 23 23 23 24 23 23 23 22 21 21 22 21 23 24 23 24 26 25 23 22 22 23 21 19 19 19 19 18 18 15 10 4 4 5 6 9 12 12 14 15 16 17 17 19 21 20 17 15 13 12 12 11 12 14 15 16 16 14 13 14 17 18 17 17 16 16 15 14 13 12 10 9 8 7 7 7 6 5 5 4 3 3 3 1
20 21 22 21 21 20 21 22 21 19 20 20 20 21 22 21 21 22 21 19 18 19 19 18 17 17 17 16 17 17 17 15 12 7 5 3 1 6 11 12 12 13 14 14 17 22 23 21 19 16 13 12 11 11 11 13 13 14 13 12 12 13 16 20 22 20 18 17 17 15 14 12 10 8 7 6 5 5 5 5 3 2 2 3 5
17 18 18 17 17 17 18 19 19 18 18 18 19 19 18 18 18 17 16 16 16 15 15 15 14 14 14 14 15 15 16 17 16 14 11 9 6 4 4 5 5 6 7 6 11 21 25 23 21 19 16 14 13 12 12 13 12 12 12 13 12 10 11 19 24 23 20 18 18 17 15 13 9 7 5 4 4 4 4 4 3 3 5 5 5
15 14 12 12 13 14 14 15 16 16 15 15 17 17 16 16 16 15 14 14 15 14 13 13 12 12 13 13 14 15 16 17 17 16 15 13 10 10 9 7 5 6 6 4 7 14 18 19 19 19 18 18 17 16 15 14 14 13 12 12 12 9 7 13 21 23 20 19 19 18 15 12 9 7 6 5 4 3 3 3 2 3 3 2 0
10 10 8 7 9 10 12 13 14 14 13 13 13 14 14 15 15 14 14 14 15 14 14 13 12 12 12 13 13 14 15 15 15 15 15 15 14 12 12 11 10 10 10 8 8 12 15 19 19 18 20 22 21 20 19 18 16 15 13 12 12 10 8 12 18 20 18 19 19 17 13 10 7 5 4 3 3 2 1 1 1 0 2 4 5
6 5 5 5 6 7 8 10 11 11 10 10 10 10 11 12 13 13 13 14 15 15 15 15 14 14 13 12 13 14 14 15 16 16 16 17 17 15 13 12 11 12 13 11 9 9 10 13 14 14 17 21 22 22 21 21 20 18 15 13 13 12 10 13 16 17 17 19 20 17 13 10 8 6 4 3 2 2 1 1 3 5 6 7 5
4 3 4 6 7 7 8 8 9 9 9 10 11 10 9 9 10 12 13 13 14 15 15 15 15 15 14 14 14 14 14 16 17 17 18 19 19 19 16 13 11 14 18 18 15 10 8 4 4 5 5 9 15 19 19 20 22 22 19 16 15 15 14 15 17 19 20 21 20 16 13 11 10 8 6 4 3 2 3 5 7 8 7 5 3
4 7 10 10 10 9 9 10 11 11 10 11 12 12 11 11 11 13 13 14 14 15 15 16 16 15 15 15 15 14 15 15 16 16 17 18 19 20 21 18 15 13 15 19 19 18 19 17 10 6 6 7 8 13 17 20 20 20 19 17 16 16 16 17 19 21 21 21 19 16 15 13 11 9 8 6 5 6 8 9 9 8 6 4 3
11 10 10 10 10 9 10 11 13 14 14 14 14 15 15 16 16 16 16 17 17 17 17 17 17 17 17 18 18 17 17 17 16 16 16 17 17 19 21 21 18 13 11 13 15 18 21 21 18 15 15 13 10 13 18 20 17 15 16 16 15 15 15 16 18 20 21 20 18 17 16 15 13 11 9 8 9 11 11 11 9 7 4 3 4
11 10 10 12 12 11 12 14 16 16 16 16 16 16 16 17 18 18 19 19 19 19 19 19 19 19 19 20 22 22 21 20 20 19 18 18 17 17 17 18 17 13 9 11 14 16 18 20 20 19 18 16 16 18 21 21 21 21 20 19 17 16 15 15 16 18 18 19 19 19 17 16 15 13 10 10 12 13 12 11 10 8 5 4 5
11 12 14 16 16 16 16 16 16 15 16 16 16 16 17 17 17 18 18 19 20 20 19 20 21 21 20 21 23 24 23 21 20 20 19 17 17 17 15 13 14 14 10 10 14 16 16 17 18 17 17 15 16 19 21 23 24 25 23 21 21 20 19 18 18 19 19 19 20 19 18 17 15 13 11 12 13 13 12 12 12 10 7 5 5
Wind_Direction
102 103 112 120 122 132 139 141 151 159 162 160 158 160 160 158 157 156 157 157 155 152 148 145 144 145 146 147 149 147 141 145 150 155 161 160 154 152 151 151 151 151 155 164 164 149 148 145 146 152 153 161 167 165 152 130 127 128 143 159 143 148 150 130 131 130 129 116 101 95 89 87 88 91 105 113 118 132 144 155 164 172 181 185 183
105 100 107 118 125 138 142 147 156 163 166 166 161 160 161 159 157 157 159 159 157 155 151 148 149 149 150 154 158 157 154 153 155 155 150 145 149 153 155 155 150 145 141 137 130 122 127 132 133 127 117 126 144 154 148 139 135 125 162 185 165 164 168 158 157 147 134 122 112 96 84 85 87 87 97 102 101 116 132 145 161 167 173 178 181
112 114 124 127 134 145 147 153 163 168 170 167 160 157 158 159 157 157 157 156 154 152 149 148 149 148 149 151 155 158 158 154 151 147 142 139 139 138 140 142 137 133 128 121 118 114 115 119 118 110 101 107 119 130 136 140 153 165 177 183 173 163 151 154 175 180 159 126 116 106 95 94 82 77 76 77 89 103 113 129 154 165 165 167 173
126 135 141 136 143 151 149 155 167 173 169 161 156 157 159 160 159 158 155 153 154 152 149 150 152 152 152 152 151 151 150 148 145 145 146 144 140 137 134 134 132 132 131 128 124 121 122 121 124 124 119 131 125 105 118 166 182 175 165 172 175 162 145 154 184 185 170 139 111 100 126 121 87 86 76 53 66 96 103 111 125 145 151 151 160
136 142 144 143 148 150 150 159 172 173 165 159 160 161 161 160 161 160 154 154 157 154 150 148 150 148 145 144 144 144 145 148 148 149 150 148 148 149 144 137 135 135 138 140 135 131 131 132 139 140 128 137 138 112 106 122 145 147 134 154 178 172 154 154 164 164 160 148 131 126 107 85 119 131 108 58 43 74 95 106 107 116 127 133 138
133 138 143 145 146 145 153 168 174 171 167 166 166 165 164 164 164 161 156 157 159 154 148 145 146 144 140 139 141 144 148 150 150 149 150 149 143 138 136 135 135 132 128 133 139 136 132 132 139 140 125 121 124 118 112 106 109 122 126 137 158 166 160 149 141 144 147 138 137 133 113 135 146 142 120 66 54 60 76 101 106 106 109 118 125
123 132 142 145 147 148 160 174 172 169 172 173 171 169 168 167 167 165 161 160 159 154 150 148 149 149 148 147 146 149 151 150 150 148 147 146 139 134 134 131 131 129 122 124 130 131 132 133 137 142 137 127 119 113 112 105 101 107 115 125 134 146 152 138 128 133 133 125 128 116 109 133 146 146 136 131 98 54 57 91 103 103 102 105 113
128 135 143 147 153 155 164 173 168 168 175 177 176 174 172 170 169 168 166 163 159 154 153 155 156 155 154 152 151 155 156 152 150 148 147 145 136 132 131 129 129 129 129 131 132 135 133 122 133 143 137 130 123 113 108 106 106 106 108 113 117 121 122 118 120 124 117 114 120 115 112 125 141 146 140 131 124 89 59 82 96 102 103 99 100
137 144 150 151 157 161 164 166 164 168 174 177 177 176 175 172 169 169 169 166 161 157 158 161 160 157 156 157 158 158 155 150 148 146 147 145 137 132 131 130 130 129 133 137 140 146 129 102 124 141 130 123 122 116 113 109 107 107 106 107 107 109 108 104 106 109 108 114 118 115 115 117 124 135 135 125 122 131 120 92 111 109 105 106 106
134 142 148 146 152 161 161 156 159 167 172 176 178 178 176 173 173 172 169 167 165 165 166 164 161 160 161 162 157 149 146 147 146 145 147 146 140 135 134 133 134 134 136 138 139 142 125 104 117 130 123 114 111 111 115 112 108 110 111 110 109 109 109 101 95 89 92 112 128 127 124 122 119 124 131 129 125 125 126 143 150 136 118 116 117
126 128 130 135 145 154 150 148 155 165 171 175 178 182 180 177 176 174 172 170 170 172 172 168 168 169 167 161 150 146 147 147 147 147 147 145 140 137 136 135 134 134 132 131 133 134 124 112 114 119 116 110 107 109 113 111 108 111 114 116 109 103 106 103 91 83 86 97 113 131 134 133 135 137 141 141 136 132 132 140 149 143 135 134 131
122 125 128 135 143 148 144 145 153 162 171 175 178 183 184 181 179 176 175 174 174 176 172 170 173 169 163 157 153 152 152 151 151 151 148 145 142 141 141 136 131 132 132 131 132 132 127 119 113 113 113 114 115 115 114 113 111 110 111 116 111 101 100 96 86 81 85 87 85 100 124 136 143 145 149 149 144 144 144 143 152 149 138 141 140
116 130 136 140 147 153 148 149 155 163 172 175 178 182 184 185 183 179 177 175 176 176 172 174 173 164 160 159 159 159 156 155 154 153 152 150 149 148 147 142 137 135 136 134 133 134 132 124 115 111 112 117 120 117 116 115 113 110 107 111 110 103 99 92 85 82 83 83 81 89 104 118 136 147 152 149 146 148 146 144 156 157 148 146 145
112 130 137 145 154 156 154 156 159 161 170 176 179 183 184 186 186 181 178 177 178 175 173 177 171 160 161 162 162 161 159 159 157 155 156 156 153 150 148 147 144 140 139 137 136 136 134 129 121 112 110 118 123 121 121 118 114 109 105 105 105 104 100 92 85 85 87 87 85 88 93 96 118 147 155 150 147 148 150 156 159 151 150 153 148
112 112 110 122 161 164 157 156 161 161 168 177 183 185 187 187 186 184 180 177 177 176 176 177 170 159 159 162 164 162 160 161 160 158 159 157 153 150 149 149 146 143 141 138 137 135 134 134 129 118 112 116 121 120 118 115 109 104 100 99 100 102 99 92 89 90 91 91 89 90 91 89 96 122 148 158 161 158 154 158 160 148 144 151 138
121 120 115 114 194 185 162 152 162 168 169 177 185 187 188 188 187 186 183 179 176 177 177 176 168 158 155 159 161 161 161 161 161 162 161 157 153 152 151 150 148 147 143 140 138 134 131 130 128 124 119 117 118 117 116 115 110 107 105 102 100 102 99 95 95 96 96 97 95 94 95 89 85 92 106 126 152 165 162 160 162 154 139 131 114
128 133 146 154 185 195 165 148 159 172 175 179 185 189 187 185 186 183 180 176 174 176 175 172 166 157 154 156 158 161 163 164 164 165 162 156 155 154 151 150 150 148 145 142 138 134 130 127 127 129 126 123 122 122 122 122 119 116 114 111 109 110 107 102 100 99 98 98 96 97 95 88 84 84 85 89 100 128 153 162 173 167 147 137 122
122 123 144 149 147 167 161 147 155 171 184 183 182 185 185 183 184 180 173 171 171 172 169 167 164 158 157 158 159 163 166 167 168 164 159 157 158 155 152 152 152 149 145 141 137 135 134 134 134 132 128 124 122 121 123 122 120 116 115 115 115 116 114 110 106 101 99 97 92 91 91 85 82 79 78 83 88 92 102 125 164 171 152 140 133
124 117 131 133 128 156 173 162 155 158 183 192 179 174 175 178 178 172 169 168 167 169 168 165 164 161 159 159 160 165 168 169 167 160 158 159 158 156 155 153 152 149 146 142 141 141 141 139 137 134 130 128 125 124 124 121 120 120 120 120 117 115 113 109 107 102 101 102 95 88 87 82 79 80 79 78 81 84 77 78 129 160 151 139 133
122 112 129 139 119 158 173 168 143 127 153 192 174 154 150 160 165 163 165 166 165 168 169 165 162 160 157 156 158 163 169 168 163 160 160 160 158 157 157 155 153 151 147 146 147 145 144 142 139 138 136 132 131 131 129 126 125 126 127 125 119 115 113 108 105 101 97 102 100 92 88 83 83 86 82 76 79 88 85 81 114 143 139 135 133
118 118 134 131 95 108 141 150 166 156 138 134 134 133 135 144 153 157 160 161 161 166 167 163 161 158 155 154 153 154 161 163 162 160 159 159 160 159 157 155 154 154 152 152 150 147 147 145 142 142 140 136 136 134 133 132 131 128 126 133 131 120 117 116 112 107 100 101 105 100 90 83 88 89 80 78 84 92 99 102 115 132 133 138 143
129 134 141 147 137 113 115 132 166 167 151 106 102 140 148 146 149 155 159 160 158 155 152 152 157 158 155 155 150 146 150 154 158 160 158 157 159 160 160 158 157 158 158 155 152 151 152 149 146 146 142 140 140 135 133 132 132 129 117 123 132 122 114 116 116 116 109 104 109 105 95 90 89 90 85 80 82 97 113 113 114 124 132 143 154
135 144 144 143 121 103 105 121 144 148 149 162 196 188 162 149 151 157 158 162 160 146 132 127 133 144 153 156 148 140 141 143 148 155 159 160 161 162 163 161 161 162 162 160 157 156 157 155 154 153 146 144 141 136 136 132 129 130 116 110 120 119 113 107 114 129 125 110 108 103 102 106 99 93 92 84 77 89 109 115 115 117 119 127 145
96 109 108 113 111 114 135 149 147 147 149 162 195 209 168 150 159 169 170 164 131 99 87 90 99 111 133 151 143 129 131 136 138 142 148 158 165 167 166 164 165 167 166 166 165 162 165 164 162 159 151 147 144 137 137 136 133 138 138 127 123 124 122 105 109 130 131 120 117 113 106 108 106 95 91 88 74 75 92 112 123 122 112 107 119
27 47 69 95 123 140 158 153 148 156 155 158 176 186 161 143 132 146 170 161 113 97 95 102 114 126 143 169 176 163 150 140 135 128 125 147 162 165 167 169 172 173 173 175 175 171 171 171 168 166 159 154 153 146 140 143 147 152 153 145 132 136 143 130 120 131 133 128 127 131 132 127 121 105 91 95 87 76 84 102 115 119 113 107 106
23 24 48 63 82 107 119 126 131 136 133 132 141 143 130 119 114 126 138 135 151 180 182 173 171 168 174 194 203 192 180 159 141 123 114 140 155 159 169 177 182 182 181 182 180 177 178 177 173 171 168 164 159 151 142 142 150 156 158 158 158 169 181 191 186 172 161 157 152 150 154 153 144 128 109 111 105 88 89 98 106 109 112 116 112
52 23 27 43 48 47 56 82 97 107 114 111 110 115 118 123 145 163 151 130 134 154 179 198 203 197 199 211 211 198 189 182 179 165 147 145 153 165 181 190 193 188 188 191 183 179 183 182 177 173 169 165 160 154 147 144 143 131 131 179 214 212 215 220 221 227 215 197 193 186 180 173 158 145 146 161 151 121 102 101 110 114 113 120 118
77 61 38 47 56 38 29 59 76 85 103 112 108 111 120 134 165 191 190 179 157 144 147 164 173 171 179 193 198 193 185 192 205 200 194 187 180 184 188 195 204 196 192 195 187 182 184 179 177 178 173 169 168 164 159 161 162 146 135 216 235 236 241 234 230 236 234 221 214 206 197 184 167 153 160 179 185 182 143 108 113 126 135 132 122
52 51 43 42 51 35 25 49 64 68 84 106 116 113 113 124 139 163 178 178 171 159 139 120 120 129 136 147 162 170 174 190 202 198 199 200 196 199 191 182 193 197 197 200 193 186 186 183 180 181 181 183 183 174 165 168 176 170 167 212 246 275 267 234 226 224 208 199 199 189 173 168 162 152 162 174 179 188 182 128 116 124 137 144 137
45 48 46 42 44 40 37 39 42 49 62 82 106 113 112 121 132 145 160 160 160 156 137 111 98 100 118 136 148 164 176 189 191 183 191 205 212 223 216 182 176 188 196 198 194 188 188 188 183 177 177 180 181 179 174 170 173 172 169 203 254 317 223 188 190 179 163 164 173 165 145 139 144 154 164 168 172 178 180 172 159 147 140 144 147
43 46 46 47 47 46 44 41 37 37 39 43 66 104 117 121 134 146 142 131 132 129 118 112 104 103 121 139 153 178 193 200 196 190 191 200 207 215 214 202 200 209 202 196 194 190 186 184 182 179 175 174 176 180 180 176 180 181 176 184 174 128 114 119 131 144 144 142 149 147 137 132 141 154 157 161 172 184 192 200 204 192 172 154 143
42 42 43 46 46 44 45 44 41 38 33 30 35 58 107 117 119 129 132 126 124 116 105 109 116 123 134 143 155 171 183 194 199 199 194 191 196 202 203 204 211 213 201 194 192 187 182 181 186 187 178 171 175 179 179 181 189 188 179 171 153 130 119 114 116 130 141 140 138 137 136 138 143 142 134 129 130 129 174 203 201 199 193 183 166
37 39 39 41 45 47 47 46 44 40 35 35 37 38 59 118 119 115 123 124 122 121 115 117 126 135 140 147 158 165 167 171 184 199 198 189 187 191 192 193 196 195 193 190 186 184 182 183 189 193 186 177 178 181 183 190 189 175 164 158 149 135 126 121 121 132 148 150 144 141 144 144 144 140 129 116 99 84 101 151 169 185 195 199 199
33 37 33 32 40 44 44 44 44 41 39 42 43 43 49 71 93 104 123 128 122 122 122 122 125 129 134 141 149 156 163 164 170 191 200 197 191 184 180 175 175 179 180 176 173 177 179 178 184 192 190 186 187 186 186 187 175 162 154 152 152 144 135 130 129 132 142 151 154 155 153 147 145 141 130 116 86 74 102 124 130 135 142 153 162
30 32 28 32 41 41 38 37 37 40 42 42 42 45 51 57 59 65 79 93 96 99 109 121 124 122 128 139 146 151 157 163 169 180 190 195 193 183 175 172 171 172 171 168 174 188 184 178 184 195 197 196 196 190 181 174 166 157 147 144 147 146 141 140 139 135 135 145 158 164 157 148 149 144 129 114 90 80 97 106 103 99 92 91 99
69 65 56 52 52 49 42 38 35 36 40 41 41 43 49 53 55 57 59 61 60 58 59 69 94 128 136 137 144 150 154 160 165 166 170 181 186 182 180 178 177 180 183 187 202 213 204 190 191 199 199 192 187 179 172 169 165 157 146 142 147 153 153 148 143 139 137 142 154 162 153 147 152 149 134 119 103 103 112 103 94 91 83 80 90
89 81 77 71 64 58 50 44 39 35 33 35 39 42 45 48 50 50 50 52 51 45 43 44 43 59 149 140 132 143 149 154 159 158 162 172 176 176 180 183 185 189 191 193 200 205 203 196 194 196 191 180 174 169 167 168 168 165 157 151 156 162 161 153 144 143 144 142 145 151 147 144 151 151 145 140 132 136 150 145 114 104 102 98 100
94 86 75 68 65 60 53 49 46 39 34 35 38 40 42 44 47 46 43 41 38 33 31 35 36 41 65 102 124 157 164 156 154 153 156 169 175 178 185 192 195 193 187 183 185 186 187 187 187 189 186 178 173 170 171 173 174 173 169 166 166 165 162 159 155 153 157 153 147 149 149 147 152 155 159 164 158 149 157 167 158 139 134 125 108
72 76 64 56 57 57 52 48 45 38 34 37 40 41 41 42 43 45 41 34 29 25 23 25 30 37 45 52 65 104 143 167 179 168 159 167 180 185 191 194 191 184 177 176 175 172 173 177 182 186 188 186 180 175 177 179 177 178 175 168 170 171 166 164 163 158 159 163 161 157 156 154 151 153 163 171 167 153 142 154 161 148 134 125 112
51 54 54 54 52 49 46 44 40 34 31 34 38 40 40 38 38 40 38 29 22 21 20 20 23 29 33 35 39 48 70 121 173 176 167 171 176 174 173 178 181 178 172 174 180 178 174 176 183 184 185 190 187 180 179 180 180 183 179 168 172 180 176 170 169 166 163 167 169 161 155 154 150 151 163 173 172 162 139 138 143 132 121 120 116
45 46 49 50 48 44 42 40 36 31 30 30 32 34 33 31 32 33 30 23 19 20 20 18 17 20 22 24 25 26 30 38 61 114 130 159 180 181 180 183 187 187 183 184 185 183 180 182 185 184 181 186 191 189 186 184 184 187 186 174 175 187 189 182 177 176 175 173 171 166 158 155 154 154 160 172 180 182 172 161 159 137 119 121 127
47 46 46 44 43 40 38 36 33 29 27 26 26 27 27 27 27 23 18 17 16 15 16 16 13 9 7 7 11 13 15 14 11 14 23 28 147 185 196 202 199 194 196 202 196 186 183 183 183 184 186 189 193 200 202 197 192 192 193 186 180 186 193 190 183 180 182 179 173 170 163 157 156 155 152 166 190 203 210 218 226 246 287 312 314
55 47 43 41 41 38 34 33 32 29 27 26 24 21 19 23 23 15 8 9 9 7 8 8 6 0 354 352 354 356 360 3 3 0 353 341 325 301 261 239 219 197 202 219 200 186 182 181 182 186 193 199 201 203 209 212 207 200 197 194 191 187 191 193 189 184 184 183 176 171 166 159 158 160 163 178 198 210 224 237 251 277 299 310 313
64 52 45 42 40 36 32 29 26 24 22 21 20 17 13 15 15 6 358 359 360 359 359 359 356 350 342 337 337 338 342 348 352 356 354 343 319 298 288 283 275 255 252 253 206 187 182 181 183 186 191 200 206 205 205 213 216 211 204 197 195 189 178 185 188 186 187 187 179 170 165 161 162 169 176 187 201 211 230 249 271 294 303 306 93
71 61 58 56 46 38 32 23 18 17 16 13 12 10 5 3 3 359 355 354 351 350 352 353 351 347 341 335 328 326 329 334 338 343 345 344 334 309 284 275 273 271 270 261 233 217 209 201 200 204 203 201 204 205 203 207 212 212 207 199 195 189 167 164 173 178 183 184 177 168 163 162 163 166 162 164 176 185 205 279 322 8 126 131 127
98 89 87 88 78 60 40 21 11 9 8 6 6 2 354 352 352 353 352 350 348 347 347 344 342 340 338 335 328 321 317 317 321 325 325 327 330 327 316 298 278 271 273 271 254 235 214 195 193 206 207 198 198 201 199 198 204 207 206 199 192 184 172 164 163 165 170 173 170 169 170 169 164 158 146 136 128 103 70 75 108 126 134 133 126
160 130 89 77 64 47 27 6 351 346 344 345 347 350 349 346 348 350 349 345 344 348 350 349 346 342 337 334 329 322 317 314 315 317 317 316 315 317 322 319 293 261 244 236 238 250 259 233 142 123 153 185 201 208 202 195 197 200 200 198 190 181 177 171 165 162 165 169 169 170 171 169 163 154 146 141 130 112 117 125 125 131 140 139 127
60 50 47 41 28 11 356 345 341 343 346 344 343 349 354 354 353 350 347 346 345 346 346 344 342 341 341 339 334 327 321 316 313 312 314 314 309 305 305 309 309 286 246 229 227 230 238 241 228 186 168 178 206 228 223 208 199 194 192 192 188 182 180 177 171 167 166 167 169 170 168 166 164 161 158 156 148 142 143 141 134 135 149 161 176
36 32 27 16 1 347 351 4 9 11 15 12 5 2 1 1 1 356 352 352 351 350 348 342 336 334 334 335 333 330 325 320 315 309 307 307 307 303 299 299 301 295 275 261 250 232 226 229 227 216 204 196 207 236 236 224 216 209 204 201 194 187 187 186 181 177 174 171 172 173 173 171 170 170 172 171 161 154 153 153 150 150 160 173 185
5 7 10 12 13 12 18 25 23 18 15 13 10 4 358 356 358 358 358 357 354 353 354 352 348 346 344 340 336 330 324 322 321 319 313 309 309 310 307 308 313 307 281 262 254 241 232 230 225 221 221 222 229 235 231 224 219 217 216 215 209 204 206 202 190 186 185 182 180 180 179 179 180 180 182 180 172 167 168 168 169 177 192 184 176
5 24 31 31 30 27 23 20 16 11 8 6 3 360 355 350 349 350 352 354 353 353 353 351 349 348 346 344 342 337 330 324 324 328 331 330 330 326 315 313 328 333 308 256 238 236 237 235 229 226 226 226 226 226 222 217 213 211 213 216 213 209 213 215 208 202 196 191 189 189 185 185 189 187 182 179 178 179 183 185 185 190 197 196 197